M8FSI-13 Weather Reports


time (UTC)temp
C
wind
direction
speed
KPH
gust
KPH
rain 1hr
cm
rain 24hr
cm
rain mn
cm
humidity
%
barometer
mb
20260507075519 12 135 6.4 14.5 0.00 0.00 0.00 72 1017.1
20260507074539 12 113 8.0 16.1 0.00 0.00 0.00 72 1016.9
20260507073519 12 113 9.7 16.1 0.00 0.00 0.00 73 1017.0
20260507072542 11 90 8.0 11.3 0.00 0.00 0.00 74 1016.8
20260507071519 11 90 9.7 14.5 0.00 0.00 0.00 75 1016.7
20260507070618 11 90 8.0 14.5 0.00 0.00 0.00 74 1016.7
20260507065520 11 90 6.4 11.3 0.00 0.00 0.00 76 1016.7
20260507064519 11 90 8.0 9.7 0.00 0.00 0.00 76 1016.7
20260507063534 10 90 4.8 8.0 0.00 0.00 0.00 78 1016.6
20260507062533 10 90 4.8 6.4 0.00 0.00 0.00 78 1016.6
20260507061539 10 68 3.2 6.4 0.00 0.00 0.00 80 1016.5
20260507060548 10 68 1.6 4.8 0.00 0.00 0.00 81 1016.6
20260507055533 9 68 1.6 4.8 0.00 0.00 0.00 81 1016.4
20260507054544 8 0.0 1.6 0.00 0.00 0.00 82 1016.4
20260507053519 8 68 1.6 1.6 0.00 0.00 0.00 83 1016.4
20260507052541 7 0.0 1.6 0.00 0.00 0.00 85 1016.3
20260507051520 7 90 1.6 3.2 0.00 0.00 0.00 85 1016.3
20260507050518 7 0.0 1.6 0.00 0.00 0.00 87 1016.2
20260507045518 6 0.0 1.6 0.00 0.00 0.00 87 1016.1
20260507044520 6 0.0 1.6 0.00 0.00 0.00 87 1016.2
20260507043540 6 0.0 0.0 0.00 0.00 0.00 86 1016.1
20260507042518 6 0.0 1.6 0.00 0.00 0.00 86 1016.1
20260507041519 6 0.0 1.6 0.00 0.00 0.00 86 1016.1
20260507040520 6 0.0 1.6 0.00 0.00 0.00 85 1016.1
20260507035558 6 0.0 1.6 0.00 0.00 0.00 85 1016.1
20260507034518 6 0.0 1.6 0.00 0.00 0.00 85 1016.1
20260507033535 6 0.0 1.6 0.00 0.00 0.00 85 1016.1
20260507032520 6 0.0 1.6 0.00 0.00 0.00 84 1016.0
20260507031614 6 0.0 1.6 0.00 0.00 0.00 84 1016.0
20260507030554 6 0.0 1.6 0.00 0.00 0.00 84 1016.0
20260507025533 6 0.0 1.6 0.00 0.00 0.00 84 1015.9
20260507024538 6 0.0 3.2 0.00 0.00 0.00 84 1015.9
20260507023548 6 0.0 1.6 0.00 0.00 0.00 85 1015.9
20260507022520 6 0.0 1.6 0.00 0.00 0.00 84 1015.8
20260507021520 7 0.0 1.6 0.00 0.00 0.00 85 1015.8
20260507020520 7 0.0 1.6 0.00 0.00 0.00 84 1015.7
20260507015549 7 0.0 1.6 0.00 0.00 0.00 85 1015.7
20260507014520 7 0.0 1.6 0.00 0.00 0.00 84 1015.6
20260507013519 7 0.0 1.6 0.00 0.00 0.00 84 1015.7
20260507012557 7 0.0 0.0 0.00 0.00 0.00 84 1015.7
20260507011518 7 0.0 0.0 0.00 0.00 0.00 83 1015.8
20260507010540 7 0.0 0.0 0.00 0.00 0.00 82 1015.8
20260507005518 7 0.0 1.6 0.00 0.00 0.00 82 1015.8
20260507004535 7 0.0 1.6 0.00 0.00 0.00 82 1015.7
20260507003519 7 0.0 1.6 0.00 0.00 0.00 81 1015.7
20260507002535 7 0.0 1.6 0.00 0.00 0.00 81 1015.7
20260507001539 8 0.0 1.6 0.00 0.00 0.00 80 1015.8
20260507000518 8 0.0 1.6 0.00 0.00 0.00 80 1015.9
20260506235518 8 0.0 1.6 0.00 0.00 0.00 79 1015.9
20260506234523 8 0.0 1.6 0.00 0.00 0.00 78 1015.8
20260506233518 9 0.0 1.6 0.00 0.00 0.00 77 1015.8
20260506232533 10 0.0 1.6 0.00 0.00 0.00 75 1015.8
20260506231534 10 0.0 1.6 0.00 0.00 0.00 74 1015.7
20260506230519 10 0.0 1.6 0.00 0.00 0.00 72 1015.6
20260506225553 11 45 1.6 4.8 0.00 0.00 0.00 72 1015.6
20260506224533 11 68 1.6 3.2 0.00 0.00 0.00 71 1015.7
20260506223533 11 68 1.6 3.2 0.00 0.00 0.00 70 1015.6
20260506222519 11 90 3.2 4.8 0.00 0.00 0.00 69 1015.6
20260506221557 11 68 1.6 3.2 0.00 0.00 0.00 70 1015.5
20260506220519 11 45 1.6 3.2 0.00 0.00 0.00 69 1015.4
20260506215535 11 68 1.6 3.2 0.00 0.00 0.00 69 1015.5
20260506214519 11 45 1.6 4.8 0.00 0.00 0.00 68 1015.5
20260506213518 11 45 1.6 3.2 0.00 0.00 0.00 67 1015.4
20260506212533 11 45 1.6 4.8 0.00 0.00 0.00 67 1015.4
20260506211521 11 45 1.6 3.2 0.00 0.00 0.00 67 1015.4
20260506210536 11 68 1.6 4.8 0.00 0.00 0.00 67 1015.3
20260506205518 11 45 1.6 3.2 0.00 0.00 0.00 66 1015.1
20260506204521 11 0.0 1.6 0.00 0.00 0.00 65 1015.1
20260506203520 12 0.0 1.6 0.00 0.00 0.00 65 1015.0
20260506202519 12 0.0 1.6 0.00 0.00 0.00 64 1014.9
20260506201535 12 0.0 1.6 0.00 0.00 0.00 64 1014.9
20260506200533 12 0.0 1.6 0.00 0.00 0.00 64 1014.7
20260506195535 12 0.0 1.6 0.00 0.00 0.00 63 1014.7
20260506194540 12 0.0 3.2 0.00 0.00 0.00 63 1014.6
20260506193522 12 45 1.6 3.2 0.00 0.00 0.00 62 1014.4
20260506192554 12 68 1.6 4.8 0.00 0.00 0.00 62 1014.4
20260506191519 12 0.0 3.2 0.00 0.00 0.00 61 1014.4
20260506190521 12 45 1.6 6.4 0.00 0.00 0.00 61 1014.3
20260506185520 12 45 3.2 9.7 0.00 0.00 0.00 60 1014.2
20260506184519 12 45 1.6 6.4 0.00 0.00 0.00 61 1014.2
20260506183519 13 45 1.6 6.4 0.00 0.00 0.00 60 1014.1
20260506182535 13 68 3.2 11.3 0.00 0.00 0.00 59 1014.1
20260506181518 13 45 4.8 8.0 0.00 0.00 0.00 59 1013.9
20260506180520 13 68 3.2 8.0 0.00 0.00 0.00 58 1013.9
20260506175518 13 23 3.2 8.0 0.00 0.00 0.00 58 1013.5
20260506174535 13 45 4.8 14.5 0.00 0.00 0.00 55 1013.4
20260506173556 14 315 1.6 6.4 0.00 0.00 0.00 52 1013.3
20260506172520 14 315 1.6 6.4 0.00 0.00 0.00 53 1013.3
20260506171534 14 315 3.2 6.4 0.00 0.00 0.00 52 1013.2
20260506170521 14 315 1.6 6.4 0.00 0.00 0.00 51 1013.3
20260506165541 14 315 1.6 4.8 0.00 0.00 0.00 52 1013.3
20260506164520 14 68 4.8 12.9 0.00 0.00 0.00 52 1013.2
20260506163520 14 68 6.4 12.9 0.00 0.00 0.00 51 1013.3
20260506162545 15 45 4.8 11.3 0.00 0.00 0.00 50 1013.2
20260506161534 15 0 1.6 4.8 0.00 0.00 0.00 48 1013.2
20260506160520 15 113 3.2 12.9 0.00 0.00 0.00 47 1013.3
20260506155520 14 68 8.0 12.9 0.00 0.00 0.00 48 1013.3
20260506154524 15 45 3.2 9.7 0.00 0.00 0.00 47 1013.3
20260506153520 15 45 3.2 9.7 0.00 0.00 0.00 47 1013.3
20260506152521 15 45 4.8 12.9 0.00 0.00 0.00 47 1013.4
20260506151520 15 23 4.8 11.3 0.00 0.00 0.00 45 1013.2
20260506150544 15 315 3.2 8.0 0.00 0.00 0.00 46 1013.3
20260506145520 15 315 3.2 9.7 0.00 0.00 0.00 45 1013.3
20260506144519 15 293 1.6 6.4 0.00 0.00 0.00 46 1013.2
20260506143520 15 315 3.2 6.4 0.00 0.00 0.00 44 1013.3
20260506142519 15 315 3.2 8.0 0.00 0.00 0.00 46 1013.3
20260506141539 15 45 8.0 16.1 0.00 0.00 0.00 46 1013.3
20260506140519 16 315 3.2 11.3 0.00 0.00 0.00 43 1013.2
20260506135558 15 68 3.2 8.0 0.00 0.00 0.00 45 1013.3
20260506134534 15 0 3.2 16.1 0.00 0.00 0.00 46 1013.3
20260506133525 16 68 6.4 22.5 0.00 0.00 0.00 45 1013.3
20260506132534 15 45 4.8 12.9 0.00 0.00 0.00 47 1013.2
20260506131535 15 68 3.2 9.7 0.00 0.00 0.00 46 1013.4
20260506130534 15 68 6.4 14.5 0.00 0.00 0.00 45 1013.3
20260506125559 15 315 3.2 9.7 0.00 0.00 0.00 47 1013.3
20260506124520 15 315 3.2 6.4 0.00 0.00 0.00 47 1013.3
20260506123534 15 338 4.8 16.1 0.00 0.00 0.00 48 1013.3
20260506122534 15 68 4.8 12.9 0.00 0.00 0.00 45 1013.3
20260506121520 15 45 4.8 12.9 0.00 0.00 0.00 46 1013.4
20260506120536 15 45 6.4 12.9 0.00 0.00 0.00 47 1013.5
20260506115520 16 338 3.2 9.7 0.00 0.00 0.00 46 1013.6
20260506114519 15 23 6.4 22.5 0.00 0.00 0.00 46 1013.7
20260506113520 15 45 9.7 19.3 0.00 0.00 0.00 45 1013.6
20260506112549 16 23 4.8 12.9 0.00 0.00 0.00 45 1013.7
20260506111524 16 90 4.8 16.1 0.00 0.00 0.00 44 1013.7
20260506110519 15 68 6.4 14.5 0.00 0.00 0.00 46 1013.7
20260506105521 15 315 3.2 9.7 0.00 0.00 0.00 49 1013.8
20260506104540 14 68 8.0 16.1 0.00 0.00 0.00 51 1013.7
20260506103520 14 68 6.4 12.9 0.00 0.00 0.00 50 1013.8
20260506102519 13 68 8.0 16.1 0.00 0.00 0.00 52 1013.7
20260506100548 13 45 8.0 20.9 0.00 0.00 0.00 49 1013.8
20260506095554 13 45 4.8 11.3 0.00 0.00 0.00 50 1013.8
20260506094519 13 315 4.8 8.0 0.00 0.00 0.00 53 1013.8
20260506093519 13 315 3.2 9.7 0.00 0.00 0.00 54 1013.9
20260506092519 13 90 1.6 6.4 0.00 0.00 0.00 53 1014.0
20260506091601 13 23 4.8 16.1 0.00 0.00 0.00 53 1014.0
20260506090520 13 293 4.8 11.3 0.00 0.00 0.00 55 1014.0
20260506085558 13 23 3.2 9.7 0.00 0.00 0.00 58 1014.0
20260506084520 12 315 3.2 8.0 0.00 0.00 0.00 60 1014.0
20260506083520 12 315 3.2 9.7 0.00 0.00 0.00 60 1014.0
20260506082519 12 45 3.2 11.3 0.00 0.00 0.00 61 1014.1
20260506081521 12 315 3.2 11.3 0.00 0.00 0.00 63 1013.9
20260506080520 12 0 3.2 12.9 0.00 0.00 0.00 63 1013.9